Main page
METAR-TAF:

METAR-TAF

Airports :

Hillsdale Municipal Airport

Hillsdale, Michigan, United States

latitude: 41-55-17N, longitude: 084-35-09W, elevation: 1181 ft

Current weather observation

The report was made 16 minutes ago, at 02:35 UTC
Wind 1 mph from the South/Southeast
Temperature 57°F
Humidity 94%
Pressure 30.17 in. Hg
Visibility: 10 miles
Clear sky

METAR: KJYM 190235Z AUTO 15001KT 10SM CLR 14/13 A3017 RMK AO2

Time: 22:51 (02:51 UTC)


TAF: missing

Weather observations and forecasts of more than 4000 airports (METAR and TAF reports).

The available stations are represented by yellow and red dots on the map.

Hover mouse over dot to see the name of the station.

Then click to see weather observations and forecasts.

To change the map : click on the green buttons with a black cross to zoom in, on the green button with a dash to zoom out, or on the green arrows for adjacent maps.


METAR-TAF: